Winnsboro, SC

1:10 PM EST on December 16, 2017 (GMT -0500)
Fairfield County

Weather History for KFDW - November, 2012

Change the Weather History Date:

Thursday, November 15, 2012

  Actual Average Record
Temperature  
Mean Temperature 47 °F -  
Max Temperature 53 °F 63 °F 80 °F (2011)
Min Temperature 41 °F 39 °F 28 °F (2014)
Degree Days  
Heating Degree Days 18    
Moisture  
Dew Point 42 °F    
Average Humidity 89    
Maximum Humidity 100    
Minimum Humidity 67    
Precipitation  
Precipitation 0.00 in - - ()
Sea Level Pressure  
Sea Level Pressure 30.27 in    
Wind  
Wind Speed 7 mph (NNE)    
Max Wind Speed 15 mph    
Max Gust Speed 25 mph    
Visibility 8 miles    
Events Rain    
Averages and records for this station are not official NWS values.
T = Trace of Precipitation, MM = Missing Value Source: NWS Daily Summary

Daily Weather History Graph

Daily Weather History Graph

Search for Another Location

Airport or City:

Trip Planner

Search our weather history database for the weather conditions in past years. The results will help you decide how hot, cold, wet, or windy it might be!

Date:

Astronomy

Nov. 15, 2012 Rise Set
Actual Time 6:57 AM EST 5:19 PM EST
Civil Twilight 6:31 AM EST 5:46 PM EST
Nautical Twilight 6:00 AM EST 6:16 PM EST
Astronomical Twilight 5:31 AM EST 6:46 PM EST
Moon 8:49 AM EST (11/15) 7:12 PM EST (11/15)
Length of Visible Light 11h 15m
Length of Day
10h 21m
Waxing Crescent, 5% of the Moon is Illuminated
Nov 15
Waxing Crescent
Nov 20
First Quarter
Nov 28
Full
Dec 6
Last Quarter
Dec 13
New

Hourly Weather History & Observations

Time (EST) Temp. Windchill Dew Point Humidity Pressure Visibility Wind Dir Wind Speed Gust Speed Precip Events Conditions
12:15 AM 44.6 °F 40.2 °F 42.8 °F 93% 30.30 in 10.0 mi NNE 8.1 mph - N/A   Light Drizzle
12:35 AM 44.6 °F 39.7 °F 42.8 °F 93% 30.30 in 10.0 mi NNE 9.2 mph - N/A   Overcast
12:55 AM 44.6 °F 41.4 °F 42.8 °F 93% 30.31 in 10.0 mi NNE 5.8 mph - N/A   Overcast
1:15 AM 44.6 °F 40.2 °F 42.8 °F 93% 30.30 in 10.0 mi NNE 8.1 mph - N/A   Overcast
1:55 AM 44.6 °F 40.2 °F 41.0 °F 87% 30.28 in 10.0 mi NNE 8.1 mph - N/A Rain Rain
2:15 AM 44.6 °F 40.2 °F 41.0 °F 87% 30.27 in 10.0 mi NNE 8.1 mph - N/A   Overcast
2:35 AM 44.6 °F 41.4 °F 41.0 °F 87% 30.28 in 10.0 mi North 5.8 mph - N/A   Overcast
2:55 AM 44.6 °F 40.7 °F 41.0 °F 87% 30.27 in 10.0 mi NNE 6.9 mph - N/A   Overcast
3:15 AM 44.6 °F 40.7 °F 41.0 °F 87% 30.28 in 10.0 mi North 6.9 mph - N/A   Light Drizzle
3:35 AM 44.6 °F 40.7 °F 41.0 °F 87% 30.27 in 7.0 mi NNE 6.9 mph - N/A Rain Heavy Rain
4:15 AM 42.8 °F 37.5 °F 42.8 °F 100% 30.34 in 4.0 mi WSW 9.2 mph - N/A Rain Heavy Rain
4:55 AM 42.8 °F 36.2 °F 42.8 °F 100% 30.28 in 4.0 mi North 12.7 mph - N/A Rain Heavy Rain
5:15 AM 42.8 °F - 42.8 °F 100% 30.32 in 2.5 mi Calm Calm - N/A Rain Heavy Rain
5:55 AM 41.0 °F 33.1 °F 41.0 °F 100% 30.25 in 2.5 mi NNE 15.0 mph 25.3 mph N/A Rain Heavy Rain
6:15 AM 41.0 °F 34.3 °F 41.0 °F 100% 30.26 in 5.0 mi NE 11.5 mph 25.3 mph N/A Rain Rain
6:35 AM 41.0 °F 34.3 °F 41.0 °F 100% 30.27 in 4.0 mi NNE 11.5 mph 20.7 mph N/A Rain Heavy Rain
6:55 AM 41.0 °F 38.0 °F 41.0 °F 100% 30.29 in 3.0 mi NNW 4.6 mph 19.6 mph N/A Rain Rain
7:15 AM 41.0 °F 33.1 °F 41.0 °F 100% 30.25 in 4.0 mi NNE 15.0 mph 19.6 mph N/A Rain Rain
7:35 AM 41.0 °F 35.2 °F 41.0 °F 100% 30.26 in 5.0 mi North 9.2 mph 21.9 mph N/A Rain Rain
7:55 AM 41.0 °F 37.1 °F 41.0 °F 100% 30.27 in 4.0 mi NNE 5.8 mph - N/A Rain Rain
8:15 AM 41.0 °F 37.1 °F 41.0 °F 100% 30.27 in 7.0 mi NNE 5.8 mph - N/A Rain Light Rain
8:35 AM 41.0 °F - 41.0 °F 100% 30.29 in 7.0 mi Calm Calm - N/A   Overcast
8:55 AM 41.0 °F 36.4 °F 41.0 °F 100% 30.29 in 7.0 mi NNE 6.9 mph - N/A   Overcast
9:15 AM 41.0 °F 36.4 °F 41.0 °F 100% 30.29 in 5.0 mi NNE 6.9 mph - N/A   Overcast
9:35 AM 41.0 °F 36.4 °F 41.0 °F 100% 30.30 in 4.0 mi North 6.9 mph - N/A   Overcast
9:55 AM 42.8 °F 39.3 °F 42.8 °F 100% 30.29 in 4.0 mi North 5.8 mph - N/A   Overcast
10:15 AM 42.8 °F 38.0 °F 42.8 °F 100% 30.29 in 4.0 mi North 8.1 mph - N/A   Overcast
10:35 AM 42.8 °F 40.1 °F 42.8 °F 100% 30.30 in 5.0 mi North 4.6 mph - N/A   Overcast
10:55 AM 42.8 °F 37.5 °F 42.8 °F 100% 30.31 in 5.0 mi NNE 9.2 mph - N/A   Overcast
11:15 AM 42.8 °F 38.6 °F 42.8 °F 100% 30.31 in 7.0 mi North 6.9 mph - N/A   Overcast
11:35 AM 42.8 °F 37.5 °F 42.8 °F 100% 30.30 in 7.0 mi North 9.2 mph - N/A   Overcast
11:55 AM 42.8 °F 37.0 °F 42.8 °F 100% 30.30 in 7.0 mi North 10.4 mph 16.1 mph N/A   Overcast
12:15 PM 42.8 °F 37.5 °F 42.8 °F 100% 30.30 in 10.0 mi North 9.2 mph - N/A   Overcast
12:35 PM 44.6 °F 39.2 °F 42.8 °F 93% 30.29 in 10.0 mi North 10.4 mph - N/A   Overcast
12:55 PM 42.8 °F 37.5 °F 41.0 °F 93% 30.28 in 10.0 mi North 9.2 mph - N/A   Overcast
1:15 PM 44.6 °F 39.7 °F 42.8 °F 93% 30.28 in 10.0 mi North 9.2 mph - N/A   Overcast
1:35 PM 46.4 °F 42.9 °F 42.8 °F 87% 30.27 in 10.0 mi NNE 6.9 mph - N/A   Overcast
1:55 PM 46.4 °F 42.4 °F 42.8 °F 87% 30.27 in 10.0 mi North 8.1 mph - N/A   Overcast
2:15 PM 48.2 °F - 42.8 °F 82% 30.26 in 10.0 mi North 9.2 mph - N/A   Overcast
2:55 PM 50.0 °F - 42.8 °F 76% 30.25 in 10.0 mi NNE 3.5 mph - N/A   Mostly Cloudy
3:15 PM 50.0 °F - 42.8 °F 76% 30.24 in 10.0 mi NNE 8.1 mph - N/A   Mostly Cloudy
3:35 PM 51.8 °F - 42.8 °F 71% 30.23 in 10.0 mi NE 6.9 mph - N/A   Scattered Clouds
3:55 PM 51.8 °F - 42.8 °F 71% 30.23 in 10.0 mi NNE 5.8 mph - N/A   Clear
4:15 PM 53.6 °F - 42.8 °F 67% 30.23 in 10.0 mi North 4.6 mph - N/A   Clear
4:35 PM 51.8 °F - 42.8 °F 71% 30.23 in 10.0 mi NE 5.8 mph - N/A   Clear
4:55 PM 51.8 °F - 42.8 °F 71% 30.23 in 10.0 mi North 5.8 mph - N/A   Scattered Clouds
5:15 PM 51.8 °F - 42.8 °F 71% 30.23 in 10.0 mi NNE 5.8 mph - N/A   Mostly Cloudy
5:35 PM 51.8 °F - 42.8 °F 71% 30.24 in 10.0 mi North 6.9 mph - N/A   Overcast
5:55 PM 50.0 °F - 42.8 °F 76% 30.25 in 10.0 mi North 5.8 mph - N/A   Overcast
6:15 PM 50.0 °F - 41.0 °F 71% 30.25 in 10.0 mi North 5.8 mph - N/A   Overcast
6:35 PM 48.2 °F - 41.0 °F 76% 30.24 in 10.0 mi NNE 4.6 mph - N/A   Overcast
6:55 PM 48.2 °F - 41.0 °F 76% 30.25 in 10.0 mi NNE 6.9 mph - N/A   Overcast
7:35 PM 46.4 °F - 41.0 °F 81% 30.25 in 10.0 mi Calm Calm - N/A   Mostly Cloudy
7:55 PM 46.4 °F 45.2 °F 41.0 °F 81% 30.25 in 10.0 mi NNE 3.5 mph - N/A   Scattered Clouds
8:15 PM 44.6 °F - 41.0 °F 87% 30.26 in 10.0 mi Calm Calm - N/A   Clear
8:35 PM 44.6 °F 43.1 °F 41.0 °F 87% 30.26 in 10.0 mi NNE 3.5 mph - N/A   Clear
8:55 PM 44.6 °F 43.1 °F 41.0 °F 87% 30.27 in 10.0 mi NE 3.5 mph - N/A   Clear
9:15 PM 44.6 °F - 41.0 °F 87% 30.27 in 10.0 mi Calm Calm - N/A   Scattered Clouds
9:55 PM 42.8 °F 40.1 °F 41.0 °F 93% 30.29 in 10.0 mi North 4.6 mph - N/A   Overcast
10:15 PM 42.8 °F 40.1 °F 42.8 °F 100% 30.28 in 10.0 mi North 4.6 mph - N/A   Overcast
10:35 PM 44.6 °F 42.2 °F 42.8 °F 93% 30.28 in 10.0 mi North 4.6 mph - N/A   Overcast
10:55 PM 44.6 °F 42.2 °F 41.0 °F 87% 30.27 in 10.0 mi North 4.6 mph - N/A   Overcast
11:15 PM 44.6 °F 42.2 °F 41.0 °F 87% 30.27 in 10.0 mi North 4.6 mph - N/A   Overcast
11:35 PM 44.6 °F 42.2 °F 41.0 °F 87% 30.27 in 10.0 mi North 4.6 mph - N/A   Overcast
11:55 PM 44.6 °F 41.4 °F 41.0 °F 87% 30.27 in 10.0 mi North 5.8 mph - N/A   Overcast